Location: Blachownia
(50.7807°N, 18.9578°E)
Time: 06:57:38
(UTC+02:00)

ISS - Visible Passes

Search period start: 20 September 2018 00:00
Search period end: 30 September 2018 00:00
Orbit: 402 x 408 km, 51.6° (Epoch: 20 September)

Date Brightness Start Highest point End Pass type
(mag) Time Alt. Az. Time Alt. Az. Time Alt. Az.
22 Sep -1.8 20:27:26 10° SSW 20:28:33 17° S 20:28:33 17° S visible
23 Sep -1.9 19:36:21 10° S 19:38:20 15° SE 19:39:12 14° ESE visible
23 Sep -1.3 21:11:05 10° WSW 21:11:54 16° SW 21:11:54 16° SW visible
24 Sep -3.3 20:19:16 10° SW 20:22:20 40° SSE 20:22:20 40° SSE visible
25 Sep -2.6 19:27:38 10° SSW 19:30:29 27° SSE 19:32:36 15° E visible
25 Sep -2.2 21:03:25 10° WSW 21:05:17 31° WSW 21:05:17 31° WSW visible
26 Sep -3.9 20:11:26 10° WSW 20:14:42 66° SSE 20:15:26 48° E visible
26 Sep -0.5 21:47:56 10° W 21:48:06 11° W 21:48:06 11° W visible
27 Sep -3.4 19:19:32 10° SW 19:22:42 47° SSE 19:25:29 13° E visible
27 Sep -2.6 20:55:50 10° W 20:58:09 42° W 20:58:09 42° W visible
28 Sep -3.9 20:03:44 10° WSW 20:07:03 88° NNW 20:08:07 40° ENE visible
28 Sep -0.6 21:40:20 10° W 21:40:47 13° W 21:40:47 13° W visible
29 Sep -3.8 19:11:41 10° WSW 19:14:58 74° SSE 19:18:02 12° ENE visible
29 Sep -2.8 20:48:13 10° W 20:50:42 46° WNW 20:50:42 46° WNW visible
